Location: Unspecified
(0.0000°N, 0.0000°E)
Time: 21:17:56
(UTC+01:00)

Cosmos 1908 Rocket - Visible Passes

Search period start: 25 January 2015 00:00
Search period end: 04 February 2015 00:00
Orbit: 608 x 633 km, 82.5° (Epoch: 24 January)

Date Brightness Start Highest point End Pass type
(mag) Time Alt. Az. Time Alt. Az. Time Alt. Az.
25 Jan 6.7 06:39:09 10° NE 06:41:19 14° E 06:43:46 10° ESE visible
25 Jan 6.6 20:25:32 10° WSW 20:28:03 14° W 20:30:18 10° NW visible
28 Jan 5.8 19:39:45 10° SSW 19:43:34 29° W 19:47:19 10° NNW visible
29 Jan 6.6 06:12:08 10° NE 06:14:42 16° E 06:17:31 10° SE visible
29 Jan 6.8 19:59:20 10° WSW 20:01:25 13° W 20:03:13 10° WNW visible
30 Jan 5.3 06:28:30 10° NNE 06:32:32 35° E 06:36:37 10° SSE visible
31 Jan 3.7 06:45:52 10° N 06:50:18 86° E 06:54:44 10° S visible
02 Feb 6.4 05:45:11 10° NE 05:48:05 18° E 05:51:10 10° SE visible
03 Feb 4.9 06:01:46 10° NNE 06:05:54 40° E 06:10:04 10° SSE visible
